Home   Weather   Thiruvananthapuram   Past weeks

Flag for India Past Weather in Thiruvananthapuram, Kerala, India — Yesterday and Last 2 Weeks

82 °F

Passing clouds.

Feels Like: 88 °F
Forecast: 78 / 87 °F
Wind: 9 mph from Northwest

Location: Thiruvananthapuram

Current Time: Oct 24, 2016 at 9:41:08 PM

Latest Report: Oct 24, 2016 at 9:00 PM

Visibility: 2 mi

Pressure: 29.86 "Hg

Humidity: 74%

Dew Point: 73 °F

Location of ThiruvananthapuramLocation

Past Weather in Thiruvananthapuram — Graph


Thiruvananthapuram Temperature Yesterday

Maximum temperature yesterday: 88 °F (at 12:30 PM)
Minimum temperature yesterday: 79 °F (at 3:00 AM)
Average temperature yesterday: 83 °F

High & Low Weather Summary for the Past Weeks

High90 °F (Oct 13, 11:30 AM)94% (Oct 13, 8:30 PM)29.92 "Hg (Oct 13, 8:30 PM)
Low77 °F (Oct 11, 2:30 AM)55% (Oct 11, 10:00 AM)29.68 "Hg (Oct 18, 3:30 PM)
Average83 °F80%29.81 "Hg
* Reported Oct 9 8:30 PM — Oct 24 8:30 PM, Thiruvananthapuram, Weather by CustomWeather, © 2016

Note: Actual official high and low records may vary slightly from our data, if they occured in-between our weather recording intervals... More about our weather records


Thiruvananthapuram Weather History for the Previous 24 Hours

Scroll right to see more
Time TempWeatherWind HumidityBarometerVisibility
8:30 PM
Mon, Oct 24
82 °FPassing clouds.8 mph79%29.86 "Hg2 mi
8:00 PM82 °FPassing clouds.12 mph79%29.83 "Hg2 mi
7:30 PM82 °FPassing clouds.9 mph84%29.83 "Hg2 mi
7:00 PM82 °FPassing clouds.8 mph84%29.80 "Hg2 mi
6:30 PM82 °FHaze.12 mph84%29.80 "Hg3 mi
6:00 PM84 °FPassing clouds.10 mph79%29.77 "Hg4 mi
5:30 PM84 °FPassing clouds.10 mph79%29.77 "Hg4 mi
5:00 PM84 °FScattered clouds.10 mph74%29.77 "Hg4 mi
4:30 PM86 °FScattered clouds.8 mph70%29.77 "Hg4 mi
4:00 PM86 °FScattered clouds.10 mph70%29.77 "Hg4 mi
3:30 PM86 °FScattered clouds.12 mph70%29.77 "Hg4 mi
3:00 PM86 °FScattered clouds.12 mph70%29.77 "Hg4 mi
2:30 PM86 °FScattered clouds.13 mph70%29.77 "Hg4 mi
1:30 PM88 °FPassing clouds.13 mph62%29.80 "Hg4 mi
1:00 PM88 °FPassing clouds.12 mph66%29.83 "Hg4 mi
12:30 PM88 °FPassing clouds.10 mph66%29.83 "Hg4 mi
12:00 PM88 °FPassing clouds.10 mph62%29.86 "Hg4 mi
11:30 AM88 °FPassing clouds.10 mph66%29.86 "Hg4 mi
11:00 AM88 °FPassing clouds.9 mph62%29.89 "Hg4 mi
10:30 AM88 °FPassing clouds.8 mph62%29.89 "Hg4 mi
10:00 AM88 °FPartly sunny.7 mph62%29.89 "Hg4 mi
9:30 AM86 °FPartly sunny.7 mph62%29.89 "Hg4 mi
9:00 AM86 °FPartly sunny.6 mph62%29.89 "Hg3 mi
8:30 AM81 °FPartly sunny.7 mph79%29.89 "Hg3 mi
8:00 AM81 °FBroken clouds.5 mph79%29.89 "Hg2 mi
7:30 AM81 °FScattered clouds.5 mph79%29.86 "Hg2 mi
7:00 AM79 °FScattered clouds.5 mph84%29.86 "Hg2 mi
6:30 AM79 °FPassing clouds.6 mph84%29.86 "Hg2 mi
6:00 AM79 °FHaze.6 mph84%29.83 "Hg2 mi
5:30 AM79 °FHaze.5 mph84%29.83 "Hg2 mi
5:00 AM79 °FHaze.3 mph84%29.83 "Hg2 mi
4:30 AM79 °FHaze.5 mph84%29.83 "Hg2 mi
3:30 AM79 °FHaze.5 mph84%29.83 "Hg2 mi
3:00 AM79 °FHaze.5 mph84%29.83 "Hg2 mi
2:30 AM79 °FHaze.5 mph84%29.83 "Hg2 mi
2:00 AM79 °FHaze.5 mph89%29.83 "Hg2 mi
1:30 AM79 °FPassing clouds.3 mph89%29.83 "Hg2 mi
1:00 AM81 °FPassing clouds.3 mph84%29.86 "Hg2 mi
12:30 AM81 °FPassing clouds.5 mph84%29.86 "Hg2 mi
12:00 AM81 °FPassing clouds.5 mph84%29.89 "Hg2 mi
11:30 PM
Sun, Oct 23
81 °FPassing clouds.5 mph84%29.89 "Hg2 mi
11:00 PM81 °FPassing clouds.5 mph84%29.89 "Hg2 mi
10:30 PM81 °FPassing clouds.6 mph84%29.89 "Hg2 mi
10:00 PM81 °FHaze.6 mph84%29.89 "Hg2 mi
9:30 PM82 °FHaze.5 mph79%29.89 "Hg2 mi
9:00 PM82 °FHaze.5 mph79%29.89 "Hg2 mi
Weather by CustomWeather, © 2016

See weather overviewHow to use our weather pages